Liberal, KS

4:04 AM CST on December 11, 2017 (GMT -0600)
Liberal Municipal

Weather History for KLBL - October, 2012

Change the Weather History Date:

Tuesday, October 9, 2012

  Actual Average Record
Temperature  
Mean Temperature 50 °F -  
Max Temperature 66 °F 75 °F 96 °F (1979)
Min Temperature 35 °F 45 °F 26 °F (2000)
Degree Days  
Heating Degree Days 14    
Moisture  
Dew Point 36 °F    
Average Humidity 58    
Maximum Humidity 81    
Minimum Humidity 39    
Precipitation  
Precipitation 0.00 in - - ()
Sea Level Pressure  
Sea Level Pressure 29.98 in    
Wind  
Wind Speed 12 mph (North)    
Max Wind Speed 28 mph    
Max Gust Speed 34 mph    
Visibility 10 miles    
Events      
Averages and records for this station are not official NWS values.
T = Trace of Precipitation, MM = Missing Value Source: NWS Daily Summary

Daily Weather History Graph

Daily Weather History Graph

Search for Another Location

Airport or City:

Trip Planner

Search our weather history database for the weather conditions in past years. The results will help you decide how hot, cold, wet, or windy it might be!

Date:

Astronomy

Oct. 09, 2012 Rise Set
Actual Time 7:46 AM CDT 7:14 PM CDT
Civil Twilight 7:20 AM CDT 7:40 PM CDT
Nautical Twilight 6:50 AM CDT 8:10 PM CDT
Astronomical Twilight 6:20 AM CDT 8:40 PM CDT
Moon 1:33 AM CDT (10/9) 3:35 PM CDT (10/9)
Length of Visible Light 12h 20m
Length of Day
11h 28m
Last Quarter, 36% of the Moon is Illuminated
Oct 9
Last Quarter
Oct 15
New
Oct 21
First Quarter
Oct 29
Full
Nov 6
Last Quarter

Hourly Weather History & Observations

Time (CDT) Temp. Windchill Dew Point Humidity Pressure Visibility Wind Dir Wind Speed Gust Speed Precip Events Conditions
12:15 AM 46.4 °F 43.5 °F 35.6 °F 66% 29.87 in 10.0 mi SSE 5.8 mph - N/A   Clear
12:35 AM 44.6 °F 40.7 °F 35.6 °F 71% 29.86 in 10.0 mi SSE 6.9 mph - N/A   Clear
12:55 AM 44.6 °F 40.2 °F 33.8 °F 66% 29.85 in 10.0 mi SSE 8.1 mph - N/A   Clear
1:15 AM 44.6 °F 40.7 °F 35.6 °F 71% 29.85 in 10.0 mi SSE 6.9 mph - N/A   Clear
1:55 AM 42.8 °F 38.6 °F 33.8 °F 70% 29.83 in 10.0 mi SSE 6.9 mph - N/A   Clear
2:15 AM 44.6 °F 40.7 °F 35.6 °F 71% 29.83 in 10.0 mi SSE 6.9 mph - N/A   Clear
2:55 AM 41.0 °F 35.8 °F 33.8 °F 76% 29.82 in 10.0 mi South 8.1 mph - N/A   Clear
3:15 AM 42.8 °F 37.5 °F 33.8 °F 70% 29.82 in 10.0 mi South 9.2 mph - N/A   Clear
3:35 AM 42.8 °F 40.1 °F 35.6 °F 76% 29.81 in 10.0 mi South 4.6 mph - N/A   Clear
3:55 AM 42.8 °F 38.6 °F 35.6 °F 76% 29.80 in 10.0 mi South 6.9 mph - N/A   Clear
4:15 AM 42.8 °F 38.6 °F 35.6 °F 76% 29.79 in 10.0 mi South 6.9 mph - N/A   Clear
4:35 AM 41.0 °F 35.8 °F 33.8 °F 76% 29.78 in 10.0 mi South 8.1 mph - N/A   Clear
4:55 AM 41.0 °F 36.4 °F 33.8 °F 76% - 10.0 mi SSW 6.9 mph - N/A   Clear
5:15 AM 39.2 °F 35.0 °F 33.8 °F 81% - 10.0 mi SW 5.8 mph - N/A   Clear
5:35 AM 39.2 °F 34.2 °F 33.8 °F 81% - 10.0 mi SW 6.9 mph - N/A   Clear
5:55 AM 37.4 °F 31.4 °F 32.0 °F 81% - 10.0 mi WSW 8.1 mph - N/A   Clear
6:15 AM 37.4 °F 30.8 °F 30.2 °F 75% - 10.0 mi SW 9.2 mph - N/A   Clear
6:55 AM 37.4 °F 30.8 °F 30.2 °F 75% - 10.0 mi WSW 9.2 mph - N/A   Clear
7:15 AM 37.4 °F 30.3 °F 30.2 °F 75% - 10.0 mi West 10.4 mph - N/A   Clear
7:35 AM 35.6 °F 29.9 °F 30.2 °F 81% - 10.0 mi WSW 6.9 mph - N/A   Clear
7:55 AM 35.6 °F 29.2 °F 30.2 °F 81% - 10.0 mi West 8.1 mph - N/A   Clear
8:15 AM 37.4 °F 30.8 °F 30.2 °F 75% - 8.0 mi WSW 9.2 mph - N/A   Clear
8:35 AM 39.2 °F 35.0 °F 33.8 °F 81% - 10.0 mi West 5.8 mph - N/A   Clear
8:55 AM 42.8 °F 38.0 °F 35.6 °F 76% 29.85 in 10.0 mi NW 8.1 mph - N/A   Clear
9:15 AM 46.4 °F 40.4 °F 35.6 °F 66% 29.85 in 10.0 mi NW 13.8 mph - N/A   Clear
9:35 AM 51.8 °F - 39.2 °F 62% 29.86 in 10.0 mi NNW 23.0 mph - N/A   Clear
9:55 AM 57.2 °F - 42.8 °F 59% 29.87 in 10.0 mi NNW 26.5 mph 32.2 mph N/A   Clear
10:15 AM 60.8 °F - 42.8 °F 52% 29.88 in 10.0 mi NNW 26.5 mph - N/A   Clear
10:35 AM 60.8 °F - 41.0 °F 48% 29.89 in 10.0 mi NNW 27.6 mph 32.2 mph N/A   Clear
10:55 AM 60.8 °F - 39.2 °F 45% 29.89 in 10.0 mi NNW 25.3 mph - N/A   Clear
11:15 AM 60.8 °F - 39.2 °F 45% 29.91 in 10.0 mi NNW 23.0 mph 28.8 mph N/A   Clear
11:35 AM 60.8 °F - 37.4 °F 42% 29.92 in 10.0 mi NNW 23.0 mph 28.8 mph N/A   Clear
11:55 AM 62.6 °F - 39.2 °F 42% 29.93 in 10.0 mi North 24.2 mph 29.9 mph N/A   Clear
12:15 PM 62.6 °F - 37.4 °F 39% 29.93 in 10.0 mi North 24.2 mph 27.6 mph N/A   Clear
12:35 PM 62.6 °F - 39.2 °F 42% 29.95 in 10.0 mi North 23.0 mph 29.9 mph N/A   Clear
12:55 PM 62.6 °F - 39.2 °F 42% 29.95 in 10.0 mi North 23.0 mph 29.9 mph N/A   Clear
1:15 PM 64.4 °F - 39.2 °F 40% 29.95 in 10.0 mi North 23.0 mph 28.8 mph N/A   Clear
1:35 PM 64.4 °F - 39.2 °F 40% 29.95 in 10.0 mi North 26.5 mph 32.2 mph N/A   Clear
1:55 PM 64.4 °F - 39.2 °F 40% 29.96 in 10.0 mi North 24.2 mph 31.1 mph N/A   Clear
2:15 PM 64.4 °F - 41.0 °F 42% 29.97 in 10.0 mi North 23.0 mph 29.9 mph N/A   Clear
2:35 PM 64.4 °F - 41.0 °F 42% 29.97 in 10.0 mi NNE 24.2 mph 31.1 mph N/A   Clear
2:55 PM 66.2 °F - 42.8 °F 43% 29.97 in 10.0 mi NNE 25.3 mph 34.5 mph N/A   Clear
3:15 PM 64.4 °F - 41.0 °F 42% 29.98 in 10.0 mi North 24.2 mph 29.9 mph N/A   Clear
3:35 PM 64.4 °F - 41.0 °F 42% 29.99 in 10.0 mi NNE 21.9 mph 28.8 mph N/A   Clear
3:55 PM 64.4 °F - 41.0 °F 42% 30.00 in 10.0 mi NNE 19.6 mph 25.3 mph N/A   Clear
4:15 PM 64.4 °F - 39.2 °F 40% 30.01 in 10.0 mi NE 19.6 mph 29.9 mph N/A   Clear
4:35 PM 64.4 °F - 39.2 °F 40% 30.01 in 10.0 mi NE 17.3 mph - N/A   Clear
4:55 PM 64.4 °F - 39.2 °F 40% 30.02 in 10.0 mi NNE 19.6 mph 27.6 mph N/A   Clear
5:15 PM 62.6 °F - 39.2 °F 42% 30.02 in 10.0 mi NE 18.4 mph 26.5 mph N/A   Clear
5:35 PM 62.6 °F - 39.2 °F 42% 30.02 in 10.0 mi NE 21.9 mph 28.8 mph N/A   Clear
5:55 PM 62.6 °F - 37.4 °F 39% 30.02 in 10.0 mi NE 21.9 mph 28.8 mph N/A   Clear
6:15 PM 60.8 °F - 39.2 °F 45% 30.03 in 10.0 mi NE 18.4 mph 25.3 mph N/A   Clear
6:35 PM 60.8 °F - 37.4 °F 42% 30.04 in 10.0 mi NE 15.0 mph - N/A   Clear
6:55 PM 59.0 °F - 37.4 °F 45% 30.06 in 10.0 mi NE 16.1 mph 20.7 mph N/A   Clear
7:15 PM 57.2 °F - 35.6 °F 44% 30.07 in 10.0 mi NE 16.1 mph 21.9 mph N/A   Clear
7:35 PM 55.4 °F - 35.6 °F 47% 30.08 in 10.0 mi NE 13.8 mph - N/A   Clear
7:55 PM 53.6 °F - 35.6 °F 51% 30.09 in 10.0 mi NNE 12.7 mph - N/A   Clear
8:15 PM 53.6 °F - 35.6 °F 51% 30.11 in 10.0 mi NNE 11.5 mph - N/A   Clear
8:35 PM 51.8 °F - 35.6 °F 54% 30.11 in 10.0 mi NNE 11.5 mph - N/A   Clear
8:55 PM 51.8 °F - 35.6 °F 54% 30.13 in 10.0 mi NNE 9.2 mph - N/A   Clear
9:15 PM 48.2 °F - 33.8 °F 58% 30.14 in 10.0 mi NNE 8.1 mph - N/A   Clear
9:35 PM 46.4 °F 41.5 °F 33.8 °F 62% 30.16 in 10.0 mi NNE 10.4 mph - N/A   Clear
9:55 PM 48.2 °F - 35.6 °F 62% 30.16 in 10.0 mi NNE 9.2 mph - N/A   Clear
10:15 PM 48.2 °F - 35.6 °F 62% 30.17 in 10.0 mi NNE 9.2 mph - N/A   Clear
10:35 PM 46.4 °F 42.4 °F 35.6 °F 66% 30.19 in 10.0 mi NNE 8.1 mph - N/A   Clear
10:55 PM 44.6 °F 39.7 °F 33.8 °F 66% 30.19 in 10.0 mi NNE 9.2 mph - N/A   Clear
11:15 PM 44.6 °F 39.7 °F 33.8 °F 66% 30.19 in 10.0 mi NNE 9.2 mph - N/A   Clear
11:35 PM 44.6 °F 40.2 °F 33.8 °F 66% 30.20 in 10.0 mi NNE 8.1 mph - N/A   Clear
11:55 PM 44.6 °F 40.2 °F 33.8 °F 66% 30.19 in 10.0 mi NNE 8.1 mph - N/A   Clear